Estación Meteorológica Peña el Pijo (Robertgarden) [ 07/23/19 00:41:26 CEST ]

Fecha Hora Presion(HPa) Temp (°C) Humedad % Rocio (°C) Viento ( m/s) Direccion Lluvia 1Hora(mm) Lluvia 24H(mm) LLuvia Total(mm)
2019-Jun-25 01:09:01 1010.000 - - - - WSW     330.48
2019-Jun-25 02:09:19 1009.900 - - - - WSW     330.48
2019-Jun-25 03:09:29 1009.700 - - - - WSW     330.48
2019-Jun-25 04:09:45 1009.500 - - - - WSW     330.48
2019-Jun-25 05:11:23 1009.400 - - - - WSW     330.48
2019-Jun-25 06:10:17 1009.300 - - - - WSW     330.48
2019-Jun-25 07:09:25 1010.000 - - - - WSW     330.48
2019-Jun-25 08:09:22 1010.400 - - - - WSW     330.48
2019-Jun-25 09:09:35 1010.300 - - - - WSW     330.48
2019-Jun-25 10:09:04 1010.200 - - - - WSW     330.48
2019-Jun-25 11:08:54 1009.900 - - - - WSW     330.48
2019-Jun-25 12:08:58 1009.700 - - - - WSW     330.48
2019-Jun-25 13:08:51 1009.700 - - - - WSW     330.48
2019-Jun-25 14:09:01 1009.600 - - - - WSW     330.48
2019-Jun-25 15:09:35 1009.200 - - - - WSW     330.48
2019-Jun-25 16:09:28 1009.000 - - - - WSW     330.48
2019-Jun-25 17:09:56 1009.000 - - - - WSW     330.48
2019-Jun-25 18:09:19 1008.700 - - - - WSW     330.48
2019-Jun-25 19:09:05 1008.600 - - - - WSW     330.48
2019-Jun-25 20:39:12 1009.100 - - - - WSW     330.48
2019-Jun-25 21:09:04 1009.400 - - - - WSW     330.48
2019-Jun-25 22:09:06 1010.100 - - - - WSW     330.48
2019-Jun-25 23:09:09 1011.100 - - - - WSW     330.48

Temperatura Máxima:    Temperatura Mínima:
Presión Máxima:1011.100 Hpa    Presión Mínima:1008.600 Hpa


Volver